Regional Weather Roundup
Issued by NWS Northern Indiana

Home | Current Version | Previous Version | Graphics & Text | Print | Product List | Glossary On
Versions: 1 2 3 4 5 6 7 8 9 10 11 12 13 14 15 16 17 18 19 20 21 22 23 24 25 26 27 28 29 30 31 32 33 34 35 36 37 38 39 40 41 42 43 44 45 46 47 48 49 50
000
ASUS43 KIWX 200100
RWRIWX

KIWX WEATHER ROUNDUP
NATIONAL WEATHER SERVICE NORTHERN INDIANA
900 PM EDT TUE AUG 19 2014

NOTE: "FAIR" INDICATES FEW OR NO CLOUDS BELOW 12,000 FEET WITH NO
SIGNIFICANT WEATHER AND/OR OBSTRUCTIONS TO VISIBILITY.

* THESE STATIONS ARE NOT UNDER NWS QUALITY CONTROL. THEY ALSO MAY NOT
  REPORT WEATHER SUCH AS PRECIPITATION OR FOG.

INZ001>027-200200-
NORTHERN INDIANA

CITY           SKY/WX    TMP DP  RH WIND       PRES   REMARKS
GARY*          PTCLDY    77  68  73 S6        29.74S
VALPARAISO     MOCLDY    75  67  76 S6        29.76S
KNOX*          CLOUDY    75  67  77 SW6       29.75S
SOUTH BEND     PTCLDY    74  65  73 SW5       29.76S
ELKHART*       CLEAR     73  64  73 CALM      29.77R
GOSHEN         PTCLDY    73  68  84 S5        29.77R
MONTICELLO*    LGT RAIN  67  64  91 SW6       29.77F
WARSAW*        MOCLDY    72  70  94 CALM      29.77F
ANGOLA*        PTCLDY    70  63  78 S6        29.79R
FORT WAYNE     MOCLDY    71  69  93 CALM      29.80S
PERU/GRISSOM   LGT RAIN  70  70 100 SW8       29.79F

$$
INZ028>050-200200-
CENTRAL INDIANA

CITY           SKY/WX    TMP DP  RH WIND       PRES   REMARKS
LAFAYETTE      CLOUDY    72  67  84 N15G23    29.78R THUNDER
KOKOMO*        CLOUDY    70  64  83 S9        29.79F
MUNCIE*        MOCLDY    73  68  84 SW3       29.81R
INDIANAPOLIS   MOCLDY    76  66  71 SW10      29.81R

$$
MIZ043>046-050>051-056>058-064>065-071>073-077>080-200200-
SOUTHWEST LOWER MICHIGAN

CITY           SKY/WX    TMP DP  RH WIND       PRES   REMARKS
BATTLE CREEK   PTCLDY    70  66  87 S8        29.76S
BENTON HARBOR  PTCLDY    73  64  73 SW5       29.73R
COLDWATER*     MOCLDY    71  68  91 CALM      29.78R
HILLSDALE*     MOCLDY    68  68 100 S6        29.80R
HOLLAND        LGT RAIN  72  70  93 SW5       29.74R FOG
GRAND RAPIDS   PTCLDY    72  72 100 S8        29.73R
KALAMAZOO      PTCLDY    71  68  90 S6        29.76R
STURGIS*       CLOUDY    72  66  83 S3        29.77R
THREE RIVERS*  FAIR      71  66  84 CALM      29.76S

$$
OHZ001>008-015>018-024>025-200200-
NORTHWEST OHIO

CITY           SKY/WX    TMP DP  RH WIND       PRES   REMARKS
DEFIANCE       CLOUDY    66  63  90 S6        29.80R
FINDLAY        LGT RAIN  69  64  84 N3        29.80F
TOLEDO EXPRESS LGT RAIN  68  65  90 SW7       29.78F
TOLEDO METCALF LGT RAIN  70  64  81 W7        29.79F
LIMA           LGT RAIN  72  67  84 CALM      29.83R

$$
&&



USA.gov is the U.S. government's official web portal to all federal, state and local government web resources and services.